Time,TemperatureF,DewpointF,PressureIn,WindDirection,WindDirectionDegrees,WindSpeedMPH,WindSpeedGustMPH,Humidity,HourlyPrecipIn,Conditions,Clouds,dailyrainin,SoftwareType,DateUTC
2013-01-18 00:13:00,46.6,33.9,29.88,NNW,337,0.0,-999.0,61,-99.99,,,0.00,Acu-Link.com,2013-01-18 08:13:00,
2013-01-18 00:28:00,46.0,34.1,29.88,NNW,337,0.0,-999.0,63,-99.99,,,0.00,Acu-Link.com,2013-01-18 08:28:00,
2013-01-18 00:43:00,45.9,34.0,29.89,NNW,337,0.0,-999.0,63,-99.99,,,0.00,Acu-Link.com,2013-01-18 08:43:00,
2013-01-18 00:59:00,45.9,34.4,29.88,NNW,337,1.1,-999.0,64,-99.99,,,0.00,Acu-Link.com,2013-01-18 08:59:00,
2013-01-18 01:14:00,45.5,34.4,29.89,NNW,337,1.7,-999.0,65,-99.99,,,0.00,Acu-Link.com,2013-01-18 09:14:00,
2013-01-18 01:29:00,45.1,34.4,29.88,NNW,337,0.0,-999.0,66,-99.99,,,0.00,Acu-Link.com,2013-01-18 09:29:00,
2013-01-18 01:44:00,45.1,34.8,29.88,NNW,337,1.7,-999.0,67,-99.99,,,0.00,Acu-Link.com,2013-01-18 09:44:00,
2013-01-18 01:59:00,45.0,35.5,29.89,NNW,337,2.2,-999.0,69,-99.99,,,0.00,Acu-Link.com,2013-01-18 09:59:00,
2013-01-18 02:14:00,45.0,36.2,29.88,NNW,337,1.7,-999.0,71,-99.99,,,0.00,Acu-Link.com,2013-01-18 10:14:00,
2013-01-18 02:29:00,45.1,36.6,29.89,NNW,337,2.7,-999.0,72,-99.99,,,0.00,Acu-Link.com,2013-01-18 10:29:00,
2013-01-18 02:44:00,45.3,37.2,29.88,NNW,337,2.2,-999.0,73,-99.99,,,0.00,Acu-Link.com,2013-01-18 10:44:00,
2013-01-18 02:59:00,45.3,37.2,29.88,NNW,337,3.2,-999.0,73,-99.99,,,0.00,Acu-Link.com,2013-01-18 10:59:00,
2013-01-18 03:15:00,45.1,37.3,29.88,NNW,337,3.2,-999.0,74,-99.99,,,0.00,Acu-Link.com,2013-01-18 11:15:00,
2013-01-18 03:30:00,45.1,37.3,29.87,NNW,337,2.7,-999.0,74,-99.99,,,0.00,Acu-Link.com,2013-01-18 11:30:00,
2013-01-18 03:45:00,45.1,37.3,29.87,NNW,337,2.7,-999.0,74,-99.99,,,0.00,Acu-Link.com,2013-01-18 11:45:00,
2013-01-18 04:00:00,45.1,37.7,29.89,NNW,337,2.7,-999.0,75,-99.99,,,0.00,Acu-Link.com,2013-01-18 12:00:00,
2013-01-18 04:15:00,45.0,37.9,29.88,NNW,337,1.7,-999.0,76,-99.99,,,0.00,Acu-Link.com,2013-01-18 12:15:00,
2013-01-18 04:30:00,44.6,37.5,29.88,NNW,337,2.7,-999.0,76,-99.99,,,0.00,Acu-Link.com,2013-01-18 12:30:00,
2013-01-18 04:45:00,44.4,37.6,29.87,NNW,337,3.2,-999.0,77,-99.99,,,0.00,Acu-Link.com,2013-01-18 12:45:00,
2013-01-18 05:00:00,44.4,38.0,29.87,NNW,337,2.7,-999.0,78,-99.99,,,0.00,Acu-Link.com,2013-01-18 13:00:00,
2013-01-18 05:15:00,44.4,38.0,29.87,NNW,337,2.2,-999.0,78,-99.99,,,0.00,Acu-Link.com,2013-01-18 13:15:00,
2013-01-18 05:31:00,44.2,37.8,29.88,NNW,337,3.2,-999.0,78,-99.99,,,0.00,Acu-Link.com,2013-01-18 13:31:00,
2013-01-18 05:46:00,44.2,37.5,29.87,NNW,337,2.7,-999.0,77,-99.99,,,0.00,Acu-Link.com,2013-01-18 13:46:00,
2013-01-18 06:01:00,44.1,37.7,29.88,NNW,337,2.7,-999.0,78,-99.99,,,0.00,Acu-Link.com,2013-01-18 14:01:00,
2013-01-18 06:16:00,44.1,38.0,29.88,NNW,337,2.7,-999.0,79,-99.99,,,0.00,Acu-Link.com,2013-01-18 14:16:00,
2013-01-18 06:31:00,44.1,37.7,29.88,NNW,337,2.7,-999.0,78,-99.99,,,0.00,Acu-Link.com,2013-01-18 14:31:00,
2013-01-18 06:46:00,44.1,37.7,29.88,NNW,337,2.7,-999.0,78,-99.99,,,0.00,Acu-Link.com,2013-01-18 14:46:00,
2013-01-18 07:01:00,44.1,37.7,29.89,NNW,337,2.2,-999.0,78,-99.99,,,0.00,Acu-Link.com,2013-01-18 15:01:00,
2013-01-18 07:16:00,44.1,38.3,29.89,NNW,337,2.2,-999.0,80,-99.99,,,0.00,Acu-Link.com,2013-01-18 15:16:00,
2013-01-18 07:31:00,43.9,38.8,29.89,NNW,337,2.7,-999.0,82,-99.99,,,0.00,Acu-Link.com,2013-01-18 15:31:00,
2013-01-18 07:47:00,43.7,38.9,29.90,NNW,337,2.7,-999.0,83,-99.99,,,0.00,Acu-Link.com,2013-01-18 15:47:00,
2013-01-18 08:02:00,44.1,39.3,29.90,NNW,337,3.2,-999.0,83,-99.99,,,0.00,Acu-Link.com,2013-01-18 16:02:00,
2013-01-18 08:17:00,45.0,39.5,29.91,NNW,337,3.7,-999.0,81,-99.99,,,0.00,Acu-Link.com,2013-01-18 16:17:00,
2013-01-18 08:32:00,46.2,39.7,29.91,NNW,337,3.2,-999.0,78,-99.99,,,0.00,Acu-Link.com,2013-01-18 16:32:00,
2013-01-18 08:47:00,47.5,40.0,29.92,NNW,337,3.7,-999.0,75,-99.99,,,0.00,Acu-Link.com,2013-01-18 16:47:00,
2013-01-18 09:02:00,48.7,40.1,29.93,NNW,337,4.2,-999.0,72,-99.99,,,0.00,Acu-Link.com,2013-01-18 17:02:00,
2013-01-18 09:17:00,49.6,39.9,29.93,NNW,337,4.7,-999.0,69,-99.99,,,0.00,Acu-Link.com,2013-01-18 17:17:00,
2013-01-18 09:32:00,50.9,39.6,29.93,NNW,337,4.2,-999.0,65,-99.99,,,0.00,Acu-Link.com,2013-01-18 17:32:00,
2013-01-18 09:47:00,51.1,38.1,29.93,NNW,337,4.7,-999.0,61,-99.99,,,0.00,Acu-Link.com,2013-01-18 17:47:00,
2013-01-18 10:03:00,52.0,38.6,29.93,NNW,337,4.2,-999.0,60,-99.99,,,0.00,Acu-Link.com,2013-01-18 18:03:00,
2013-01-18 10:18:00,53.2,38.4,29.93,NNW,337,4.2,-999.0,57,-99.99,,,0.00,Acu-Link.com,2013-01-18 18:18:00,
2013-01-18 10:33:00,54.7,37.9,29.93,NNW,337,6.3,-999.0,53,-99.99,,,0.00,Acu-Link.com,2013-01-18 18:33:00,
2013-01-18 10:48:00,54.7,37.4,29.93,NNW,337,4.2,-999.0,52,-99.99,,,0.00,Acu-Link.com,2013-01-18 18:48:00,
2013-01-18 11:03:00,55.9,38.0,29.92,NNW,337,4.7,-999.0,51,-99.99,,,0.00,Acu-Link.com,2013-01-18 19:03:00,
2013-01-18 11:18:00,56.5,38.1,29.92,NNW,337,4.2,-999.0,50,-99.99,,,0.00,Acu-Link.com,2013-01-18 19:18:00,
2013-01-18 11:33:00,57.4,37.3,29.91,NNW,337,6.3,-999.0,47,-99.99,,,0.00,Acu-Link.com,2013-01-18 19:33:00,
2013-01-18 11:48:00,58.1,37.4,29.90,NNW,337,2.7,-999.0,46,-99.99,,,0.00,Acu-Link.com,2013-01-18 19:48:00,
2013-01-18 12:03:00,58.3,35.3,29.89,NNW,337,4.2,-999.0,42,-99.99,,,0.00,Acu-Link.com,2013-01-18 20:03:00,
2013-01-18 12:19:00,58.5,35.5,29.89,NNW,337,4.7,-999.0,42,-99.99,,,0.00,Acu-Link.com,2013-01-18 20:19:00,
2013-01-18 12:34:00,58.6,34.4,29.88,NNW,337,4.2,-999.0,40,-99.99,,,0.00,Acu-Link.com,2013-01-18 20:34:00,
2013-01-18 12:49:00,58.5,34.9,29.88,NNW,337,5.3,-999.0,41,-99.99,,,0.00,Acu-Link.com,2013-01-18 20:49:00,
2013-01-18 13:04:00,59.0,34.7,29.87,NNW,337,5.3,-999.0,40,-99.99,,,0.00,Acu-Link.com,2013-01-18 21:04:00,
2013-01-18 13:19:00,59.5,33.9,29.86,NNW,337,5.3,-999.0,38,-99.99,,,0.00,Acu-Link.com,2013-01-18 21:19:00,
2013-01-18 13:34:00,60.3,33.2,29.86,NNW,337,3.2,-999.0,36,-99.99,,,0.00,Acu-Link.com,2013-01-18 21:34:00,
2013-01-18 13:50:00,60.3,32.5,29.87,NNW,337,4.7,-999.0,35,-99.99,,,0.00,Acu-Link.com,2013-01-18 21:50:00,
2013-01-18 14:05:00,60.3,31.8,29.86,NNW,337,4.7,-999.0,34,-99.99,,,0.00,Acu-Link.com,2013-01-18 22:05:00,
2013-01-18 14:20:00,60.8,32.3,29.86,NNW,337,6.8,-999.0,34,-99.99,,,0.00,Acu-Link.com,2013-01-18 22:20:00,
2013-01-18 14:35:00,60.4,31.9,29.86,NNW,337,5.3,-999.0,34,-99.99,,,0.00,Acu-Link.com,2013-01-18 22:35:00,
2013-01-18 14:50:00,60.6,32.1,29.85,NNW,337,4.7,-999.0,34,-99.99,,,0.00,Acu-Link.com,2013-01-18 22:50:00,
2013-01-18 15:05:00,60.8,32.3,29.85,NNW,337,3.7,-999.0,34,-99.99,,,0.00,Acu-Link.com,2013-01-18 23:05:00,
2013-01-18 15:20:00,60.6,32.1,29.85,NNW,337,4.7,-999.0,34,-99.99,,,0.00,Acu-Link.com,2013-01-18 23:20:00,
2013-01-18 15:35:00,61.2,31.9,29.85,NNW,337,3.7,-999.0,33,-99.99,,,0.00,Acu-Link.com,2013-01-18 23:35:00,
2013-01-18 15:50:00,60.3,33.9,29.85,NNW,337,2.2,-999.0,37,-99.99,,,0.00,Acu-Link.com,2013-01-18 23:50:00,
2013-01-18 16:06:00,59.2,33.6,29.85,NNW,337,2.2,-999.0,38,-99.99,,,0.00,Acu-Link.com,2013-01-19 00:06:00,
2013-01-18 16:21:00,58.3,34.7,29.85,NNW,337,0.0,-999.0,41,-99.99,,,0.00,Acu-Link.com,2013-01-19 00:21:00,
2013-01-18 16:51:00,56.7,35.0,29.85,NNW,337,0.0,-999.0,44,-99.99,,,0.00,Acu-Link.com,2013-01-19 00:51:00,
2013-01-18 17:06:00,55.8,34.8,29.85,NNW,337,1.1,-999.0,45,-99.99,,,0.00,Acu-Link.com,2013-01-19 01:06:00,
2013-01-18 17:21:00,54.9,35.1,29.85,NNW,337,0.0,-999.0,47,-99.99,,,0.00,Acu-Link.com,2013-01-19 01:21:00,
2013-01-18 17:36:00,53.8,35.1,29.85,NNW,337,0.0,-999.0,49,-99.99,,,0.00,Acu-Link.com,2013-01-19 01:36:00,
2013-01-18 18:06:00,53.2,35.0,29.86,NNW,337,1.1,-999.0,50,-99.99,,,0.00,Acu-Link.com,2013-01-19 02:06:00,
2013-01-18 18:21:00,52.3,34.2,29.86,NNW,337,0.0,-999.0,50,-99.99,,,0.00,Acu-Link.com,2013-01-19 02:21:00,
2013-01-18 18:37:00,52.5,34.4,29.86,NNW,337,1.1,-999.0,50,-99.99,,,0.00,Acu-Link.com,2013-01-19 02:37:00,
2013-01-18 18:52:00,52.0,34.4,29.86,NNW,337,0.0,-999.0,51,-99.99,,,0.00,Acu-Link.com,2013-01-19 02:52:00,
2013-01-18 19:07:00,51.8,33.8,29.86,NNW,337,1.7,-999.0,50,-99.99,,,0.00,Acu-Link.com,2013-01-19 03:07:00,
2013-01-18 19:22:00,51.6,34.1,29.86,NNW,337,0.0,-999.0,51,-99.99,,,0.00,Acu-Link.com,2013-01-19 03:22:00,
2013-01-18 19:37:00,50.9,33.4,29.86,NNW,337,1.7,-999.0,51,-99.99,,,0.00,Acu-Link.com,2013-01-19 03:37:00,
2013-01-18 19:52:00,50.5,33.5,29.86,NNW,337,0.0,-999.0,52,-99.99,,,0.00,Acu-Link.com,2013-01-19 03:52:00,
2013-01-18 20:07:00,49.6,33.2,29.86,NNW,337,1.1,-999.0,53,-99.99,,,0.00,Acu-Link.com,2013-01-19 04:07:00,
2013-01-18 20:22:00,49.3,33.4,29.86,NNW,337,0.0,-999.0,54,-99.99,,,0.00,Acu-Link.com,2013-01-19 04:22:00,
2013-01-18 20:37:00,49.5,33.1,29.86,NNW,337,0.0,-999.0,53,-99.99,,,0.00,Acu-Link.com,2013-01-19 04:37:00,
2013-01-18 20:53:00,49.6,32.7,29.86,NNW,337,1.7,-999.0,52,-99.99,,,0.00,Acu-Link.com,2013-01-19 04:53:00,
2013-01-18 21:08:00,50.0,32.1,29.87,NNW,337,1.7,-999.0,50,-99.99,,,0.00,Acu-Link.com,2013-01-19 05:08:00,
2013-01-18 21:23:00,49.8,31.9,29.86,NNW,337,1.7,-999.0,50,-99.99,,,0.00,Acu-Link.com,2013-01-19 05:23:00,
2013-01-18 21:38:00,49.3,31.5,29.87,NNW,337,1.1,-999.0,50,-99.99,,,0.00,Acu-Link.com,2013-01-19 05:38:00,
2013-01-18 21:53:00,49.1,31.8,29.87,NNW,337,0.0,-999.0,51,-99.99,,,0.00,Acu-Link.com,2013-01-19 05:53:00,
2013-01-18 22:08:00,48.0,31.2,29.87,NNW,337,0.0,-999.0,52,-99.99,,,0.00,Acu-Link.com,2013-01-19 06:08:00,
2013-01-18 22:23:00,47.1,31.3,29.87,NNW,337,0.0,-999.0,54,-99.99,,,0.00,Acu-Link.com,2013-01-19 06:23:00,
2013-01-18 22:38:00,46.6,31.8,29.88,NNW,337,0.0,-999.0,56,-99.99,,,0.00,Acu-Link.com,2013-01-19 06:38:00,
2013-01-18 22:53:00,46.4,32.0,29.88,NNW,337,0.0,-999.0,57,-99.99,,,0.00,Acu-Link.com,2013-01-19 06:53:00,
2013-01-18 23:09:00,46.0,32.1,29.88,NNW,337,0.0,-999.0,58,-99.99,,,0.00,Acu-Link.com,2013-01-19 07:09:00,
2013-01-18 23:24:00,46.0,32.1,29.88,NNW,337,0.0,-999.0,58,-99.99,,,0.00,Acu-Link.com,2013-01-19 07:24:00,
2013-01-18 23:39:00,45.5,32.4,29.88,NNW,337,0.0,-999.0,60,-99.99,,,0.00,Acu-Link.com,2013-01-19 07:39:00,
2013-01-18 23:54:00,45.7,32.2,29.87,NNW,337,0.0,-999.0,59,-99.99,,,0.00,Acu-Link.com,2013-01-19 07:54:00,